| time (UTC) | temp F | wind direction | speed MPH | gust MPH | rain 1hr in | rain 24hr in | rain mn in | humidity % | barometer mb |
| 20260502162519 | 53 | 217 | 2.0 | 3.0 | 0.00 | 0.10 | 0.10 | 83 | 1011.5 |
| 20260502161517 | 52 | 238 | 2.0 | 4.0 | 0.00 | 0.10 | 0.10 | 85 | 1011.9 |
| 20260502160520 | 52 | 286 | 2.0 | 4.0 | 0.00 | 0.10 | 0.10 | 85 | 1011.9 |
| 20260502151522 | 50 | 19 | 1.0 | 3.0 | 0.00 | 0.10 | 0.10 | 88 | 1011.9 |
| 20260502150521 | 50 | 121 | 1.0 | 3.0 | 0.00 | 0.10 | 0.10 | 87 | 1011.9 |
| 20260502130522 | 46 | 356 | 0.0 | 1.0 | 0.02 | 0.08 | 0.08 | 94 | 1012.7 |
| 20260502123524 | 46 | 326 | 1.0 | 2.0 | 0.03 | 0.06 | 0.06 | 95 | 1012.9 |
| 20260502122524 | 46 | 336 | 1.0 | 2.0 | 0.03 | 0.06 | 0.06 | 95 | 1012.6 |
| 20260502121522 | 46 | 328 | 1.0 | 2.0 | 0.03 | 0.06 | 0.06 | 96 | 1012.4 |
| 20260502120543 | 46 | 343 | 1.0 | 2.0 | 0.04 | 0.06 | 0.06 | 97 | 1012.3 |
| 20260502115543 | 46 | 2 | 1.0 | 2.0 | 0.05 | 0.06 | 0.06 | 97 | 1012.3 |
| 20260502114523 | 46 | 29 | 1.0 | 2.0 | 0.05 | 0.06 | 0.06 | 97 | 1012.4 |
| 20260502113528 | 46 | 324 | 2.0 | 3.0 | 0.03 | 0.04 | 0.04 | 97 | 1012.5 |
| 20260502112525 | 46 | 311 | 1.0 | 2.0 | 0.02 | 0.03 | 0.03 | 97 | 1012.5 |
| 20260502111525 | 46 | 54 | 1.0 | 2.0 | 0.02 | 0.03 | 0.03 | 96 | 1012.3 |
| 20260502110523 | 46 | 44 | 0.0 | 2.0 | 0.01 | 0.02 | 0.02 | 95 | 1012.0 |
| 20260502105525 | 46 | 359 | 1.0 | 2.0 | 0.01 | 0.01 | 0.01 | 96 | 1012.0 |
| 20260502104523 | 45 | 291 | 1.0 | 2.0 | 0.00 | 0.01 | 0.01 | 96 | 1011.8 |
| 20260502103524 | 45 | 74 | 0.0 | 1.0 | 0.00 | 0.01 | 0.01 | 96 | 1011.7 |
| 20260502102524 | 45 | 326 | 0.0 | 1.0 | 0.00 | 0.01 | 0.01 | 95 | 1011.6 |
| 20260502101523 | 45 | 46 | 0.0 | 0.0 | 0.00 | 0.01 | 0.01 | 95 | 1011.4 |
| 20260502100524 | 45 | 348 | 0.0 | 0.0 | 0.00 | 0.01 | 0.01 | 93 | 1011.3 |
| 20260502091525 | 44 | 300 | 1.0 | 2.0 | 0.00 | 0.01 | 0.01 | 94 | 1011.9 |
| 20260502090525 | 44 | 40 | 0.0 | 1.0 | 0.00 | 0.01 | 0.01 | 94 | 1011.7 |
| 20260502070518 | 44 | 29 | 0.0 | 1.0 | 0.00 | 0.00 | 0.00 | 90 | 1011.7 |
| 20260502065519 | 43 | 90 | 0.0 | 1.0 | 0.00 | 0.00 | 0.00 | 92 | 1011.8 |
| 20260502064518 | 42 | 307 | 1.0 | 2.0 | 0.00 | 0.00 | 0.00 | 90 | 1011.9 |
| 20260502063518 | 42 | 309 | 0.0 | 2.0 | 0.00 | 0.00 | 0.00 | 89 | 1011.7 |
| 20260502062518 | 42 | 356 | 0.0 | 1.0 | 0.00 | 0.00 | 0.00 | 89 | 1011.4 |
| 20260502060518 | 43 | 29 | 0.0 | 1.0 | 0.00 | 0.00 | 0.00 | 88 | 1011.4 |
| 20260502055519 | 43 | 39 | 1.0 | 2.0 | 0.00 | 0.00 | 0.00 | 88 | 1011.4 |
| 20260502054539 | 43 | 0.0 | 0.0 | 0.00 | 0.00 | 0.00 | 88 | 1011.6 | |
| 20260502053519 | 43 | 55 | 0.0 | 2.0 | 0.00 | 0.00 | 0.00 | 88 | 1011.5 |
| 20260502052619 | 43 | 31 | 0.0 | 1.0 | 0.00 | 0.00 | 0.00 | 87 | 1011.7 |
| 20260502051519 | 44 | 12 | 0.0 | 1.0 | 0.00 | 0.00 | 0.00 | 85 | 1011.6 |
| 20260502050519 | 44 | 13 | 0.0 | 1.0 | 0.00 | 0.00 | 0.00 | 85 | 1011.5 |
| 20260502045519 | 44 | 108 | 0.0 | 1.0 | 0.00 | 0.00 | 0.00 | 85 | 1011.6 |
| 20260502044520 | 44 | 64 | 0.0 | 1.0 | 0.00 | 0.00 | 0.00 | 85 | 1011.8 |
| 20260502043517 | 44 | 17 | 0.0 | 1.0 | 0.00 | 0.00 | 0.00 | 85 | 1011.9 |
| 20260502042520 | 44 | 37 | 0.0 | 1.0 | 0.00 | 0.00 | 0.00 | 84 | 1011.9 |
| 20260502041520 | 45 | 354 | 0.0 | 1.0 | 0.00 | 0.00 | 0.00 | 83 | 1012.0 |
| 20260502040517 | 45 | 30 | 1.0 | 2.0 | 0.00 | 0.00 | 0.00 | 82 | 1011.9 |
| 20260502035517 | 46 | 257 | 0.0 | 1.0 | 0.00 | 0.00 | 0.00 | 81 | 1011.9 |
| 20260502034520 | 45 | 33 | 0.0 | 2.0 | 0.00 | 0.00 | 0.00 | 80 | 1011.7 |
| 20260502033600 | 45 | 27 | 0.0 | 1.0 | 0.00 | 0.00 | 0.00 | 80 | 1011.7 |
| 20260502032517 | 45 | 341 | 0.0 | 1.0 | 0.00 | 0.00 | 0.00 | 80 | 1011.6 |
| 20260502031518 | 45 | 18 | 0.0 | 1.0 | 0.00 | 0.00 | 0.00 | 79 | 1011.6 |
| 20260502030521 | 44 | 38 | 0.0 | 1.0 | 0.00 | 0.00 | 0.00 | 78 | 1011.6 |
| 20260502025519 | 44 | 328 | 0.0 | 1.0 | 0.00 | 0.00 | 0.00 | 77 | 1011.7 |
| 20260502024518 | 44 | 3 | 0.0 | 1.0 | 0.00 | 0.00 | 0.00 | 77 | 1011.7 |
| 20260502023523 | 45 | 337 | 0.0 | 1.0 | 0.00 | 0.00 | 0.00 | 76 | 1011.7 |
| 20260502022518 | 45 | 56 | 0.0 | 1.0 | 0.00 | 0.00 | 0.00 | 75 | 1011.7 |
| 20260502021518 | 45 | 2 | 0.0 | 1.0 | 0.00 | 0.00 | 0.00 | 76 | 1011.7 |
| 20260502020518 | 45 | 9 | 0.0 | 1.0 | 0.00 | 0.00 | 0.00 | 73 | 1011.8 |
| 20260502015519 | 45 | 79 | 0.0 | 1.0 | 0.00 | 0.00 | 0.00 | 72 | 1011.8 |
| 20260502014519 | 45 | 85 | 0.0 | 1.0 | 0.00 | 0.00 | 0.00 | 72 | 1011.7 |
| 20260502013516 | 46 | 27 | 0.0 | 0.0 | 0.00 | 0.00 | 0.00 | 70 | 1011.7 |
| 20260502012519 | 47 | 16 | 0.0 | 1.0 | 0.00 | 0.00 | 0.00 | 68 | 1011.6 |
| 20260502011540 | 47 | 30 | 0.0 | 1.0 | 0.00 | 0.00 | 0.00 | 65 | 1011.6 |
| 20260502010520 | 48 | 28 | 0.0 | 1.0 | 0.00 | 0.00 | 0.00 | 64 | 1011.5 |
| 20260502005519 | 49 | 105 | 0.0 | 2.0 | 0.00 | 0.00 | 0.00 | 62 | 1011.4 |
| 20260502004516 | 50 | 107 | 0.0 | 1.0 | 0.00 | 0.00 | 0.00 | 61 | 1011.2 |
| 20260502003521 | 50 | 62 | 0.0 | 2.0 | 0.00 | 0.00 | 0.00 | 57 | 1011.1 |
| 20260502002523 | 51 | 66 | 0.0 | 1.0 | 0.00 | 0.00 | 0.00 | 58 | 1011.0 |
| 20260502001520 | 52 | 55 | 0.0 | 2.0 | 0.00 | 0.00 | 0.00 | 55 | 1010.7 |
| 20260502000601 | 53 | 52 | 0.0 | 1.0 | 0.00 | 0.00 | 0.00 | 52 | 1010.6 |
| 20260501235542 | 55 | 80 | 0.0 | 1.0 | 0.00 | 0.00 | 0.00 | 51 | 1010.5 |
| 20260501234520 | 56 | 321 | 0.0 | 1.0 | 0.00 | 0.00 | 0.00 | 50 | 1010.2 |
| 20260501233519 | 58 | 62 | 0.0 | 2.0 | 0.00 | 0.00 | 0.00 | 43 | 1010.0 |
| 20260501232518 | 59 | 58 | 1.0 | 2.0 | 0.00 | 0.00 | 0.00 | 43 | 1009.9 |
| 20260501231520 | 60 | 329 | 1.0 | 2.0 | 0.00 | 0.00 | 0.00 | 38 | 1009.7 |
| 20260501230539 | 60 | 295 | 2.0 | 4.0 | 0.00 | 0.00 | 0.00 | 37 | 1009.6 |
| 20260501225518 | 61 | 281 | 3.0 | 6.0 | 0.00 | 0.00 | 0.00 | 36 | 1009.6 |
| 20260501224542 | 62 | 296 | 3.0 | 6.0 | 0.00 | 0.00 | 0.00 | 36 | 1009.5 |
| 20260501223518 | 63 | 274 | 2.0 | 4.0 | 0.00 | 0.00 | 0.00 | 35 | 1009.4 |
| 20260501222520 | 63 | 283 | 2.0 | 4.0 | 0.00 | 0.00 | 0.00 | 34 | 1009.3 |
| 20260501221519 | 63 | 263 | 3.0 | 7.0 | 0.00 | 0.00 | 0.00 | 35 | 1009.2 |
| 20260501220539 | 63 | 268 | 3.0 | 7.0 | 0.00 | 0.00 | 0.00 | 36 | 1009.1 |
| 20260501215539 | 63 | 276 | 2.0 | 5.0 | 0.00 | 0.00 | 0.00 | 36 | 1009.0 |
| 20260501214519 | 62 | 301 | 2.0 | 6.0 | 0.00 | 0.00 | 0.00 | 37 | 1009.0 |
| 20260501213518 | 62 | 307 | 3.0 | 6.0 | 0.00 | 0.00 | 0.00 | 37 | 1009.1 |
| 20260501212517 | 63 | 279 | 4.0 | 9.0 | 0.00 | 0.00 | 0.00 | 37 | 1009.0 |
| 20260501211520 | 62 | 314 | 2.0 | 4.0 | 0.00 | 0.00 | 0.00 | 38 | 1008.9 |
| 20260501210558 | 62 | 280 | 4.0 | 8.0 | 0.00 | 0.00 | 0.00 | 39 | 1008.8 |
| 20260501205518 | 62 | 298 | 2.0 | 4.0 | 0.00 | 0.00 | 0.00 | 38 | 1008.7 |
| 20260501204517 | 62 | 280 | 3.0 | 7.0 | 0.00 | 0.00 | 0.00 | 38 | 1008.6 |
| 20260501203517 | 62 | 334 | 2.0 | 5.0 | 0.00 | 0.00 | 0.00 | 38 | 1008.6 |
| 20260501202541 | 63 | 262 | 3.0 | 8.0 | 0.00 | 0.00 | 0.00 | 38 | 1008.6 |
| 20260501201517 | 62 | 333 | 4.0 | 8.0 | 0.00 | 0.00 | 0.00 | 38 | 1008.6 |
| 20260501200517 | 63 | 266 | 3.0 | 8.0 | 0.00 | 0.00 | 0.00 | 38 | 1008.6 |
| 20260501195518 | 62 | 290 | 4.0 | 9.0 | 0.00 | 0.00 | 0.00 | 39 | 1008.5 |
| 20260501194519 | 62 | 310 | 3.0 | 6.0 | 0.00 | 0.00 | 0.00 | 39 | 1008.6 |
| 20260501193518 | 62 | 290 | 4.0 | 8.0 | 0.00 | 0.00 | 0.00 | 40 | 1008.6 |
| 20260501192538 | 61 | 314 | 3.0 | 7.0 | 0.00 | 0.00 | 0.00 | 41 | 1008.8 |
| 20260501191518 | 60 | 310 | 3.0 | 7.0 | 0.00 | 0.00 | 0.00 | 42 | 1009.0 |
| 20260501190518 | 61 | 295 | 3.0 | 9.0 | 0.00 | 0.00 | 0.00 | 41 | 1009.1 |
| 20260501185518 | 60 | 284 | 3.0 | 7.0 | 0.00 | 0.00 | 0.00 | 43 | 1009.1 |
| 20260501183519 | 60 | 282 | 4.0 | 9.0 | 0.00 | 0.00 | 0.00 | 43 | 1009.3 |
| 20260501182518 | 61 | 301 | 3.0 | 7.0 | 0.00 | 0.00 | 0.00 | 42 | 1009.2 |
| 20260501181519 | 61 | 275 | 4.0 | 12.0 | 0.00 | 0.00 | 0.00 | 43 | 1009.3 |
| 20260501180519 | 61 | 267 | 4.0 | 7.0 | 0.00 | 0.00 | 0.00 | 44 | 1009.4 |
| 20260501175519 | 60 | 333 | 2.0 | 6.0 | 0.00 | 0.00 | 0.00 | 46 | 1009.4 |
| 20260501174539 | 59 | 246 | 3.0 | 6.0 | 0.00 | 0.00 | 0.00 | 46 | 1009.6 |
| 20260501173519 | 60 | 265 | 3.0 | 8.0 | 0.00 | 0.00 | 0.00 | 46 | 1009.4 |
| 20260501171517 | 58 | 270 | 5.0 | 9.0 | 0.00 | 0.00 | 0.00 | 47 | 1009.5 |
| 20260501170521 | 58 | 293 | 4.0 | 7.0 | 0.00 | 0.00 | 0.00 | 48 | 1009.6 |
| 20260501165520 | 58 | 287 | 4.0 | 8.0 | 0.00 | 0.00 | 0.00 | 49 | 1009.6 |
| 20260501164520 | 58 | 286 | 3.0 | 8.0 | 0.00 | 0.00 | 0.00 | 50 | 1009.7 |
| 20260501163539 | 57 | 269 | 4.0 | 8.0 | 0.00 | 0.00 | 0.00 | 51 | 1009.8 |